Regional Weather Roundup
Issued by NWS State College, PA

Home | Current Version | Previous Version | Graphics & Text | Print | Product List | Glossary Off
Versions: 1 2 3 4 5 6 7 8 9 10 11 12 13 14 15 16 17 18 19 20 21 22 23 24 25 26 27 28 29 30 31 32 33 34 35 36 37 38 39 40 41 42 43 44 45 46 47 48 49 50

614
ASUS41 KCTP 251010
RWRCTP

REGIONAL WEATHER ROUNDUP
NATIONAL WEATHER SERVICE STATE COLLEGE PA
600 AM EDT MON JUL 25 2016

Note: "fair" indicates few or no clouds below 12,000 feet with no
significant weather and/or obstructions to visibility.

* = STATION THAT DOES NOT REPORT PRECIPITATION /E.G. RAIN...SNOW...ETC/
    THUNDER OR FOG.

PAZ002>004-007>009-013>016-020>023-029>032-251100-
WESTERN PENNSYLVANIA

CITY           SKY/WX    TMP DP  RH WIND       PRES   REMARKS
ERIE           CLOUDY    79  70  74 S14       29.90S
MEADVILLE      CLOUDY    71  68  90 S6        29.98S
FRANKLIN*      CLOUDY    70  64  83 S7        30.02S
NEW CASTLE     FAIR      72  70  93 VRB3      29.99S
BEAVER COUNTY  NOT AVBL
BUTLER*        PTCLDY    72  68  88 S5        30.02F
PITTSBURGH INT CLOUDY    73  69  87 CALM      30.00R
PITTSBURGH     CLOUDY    72  69  90 S8        30.00R FOG
INDIANA*       MOCLDY    72  70  94 CALM      30.05S
LATROBE        CLOUDY    70  70 100 CALM      30.02S
WASHINGTON CO* PTCLDY    72  70  94 SW3       30.02R
$$

PAZ004>006-010>012-017>019-024>028-033>037-041-042-045-046-049>053-251100-
CENTRAL PENNSYLVANIA

CITY           SKY/WX    TMP DP  RH WIND       PRES   REMARKS
BRADFORD       MOCLDY    67  65  93 S3        30.02F
DUBOIS         CLOUDY    68  66  93 CALM      30.02S FOG
CLEARFIELD     FOG       69  67  93 W3        30.03R VSB 1/4
JOHNSTOWN      CLOUDY    71  66  84 SW7       30.07S
ALTOONA        PTCLDY    70  67  90 CALM      30.03S
STATE COLLEGE  CLEAR     68  68 100 CALM      30.00S
WILLIAMSPORT   CLEAR     73  69  87 W5        29.96S
SELINSGROVE    MOCLDY    70  70 100 CALM      29.98R FOG
FT INDIANTOWN  CLOUDY    72  71  98 NE1       29.97S
CAPITAL CITY   CLOUDY    76  72  87 CALM      29.96S
HARRISBURG     CLOUDY    76  75  97 CALM      29.96R
YORK           CLOUDY    73  72  96 CALM      29.98R
$$

PAZ038>040-043-044-047-048-054-055-060>062-067>071-251100-
EASTERN PENNSYLVANIA

CITY           SKY/WX    TMP DP  RH WIND       PRES   REMARKS
SCRANTON       PTCLDY    73  69  87 SW6       29.97S
MOUNT POCONO   CLEAR     68  65  90 W7        30.02R
ALLENTOWN      CLOUDY    75  68  78 SW3       29.95S
QUAKERTOWN*    PTSUNNY   73  72  94 CALM      29.99R
READING        CLOUDY    75  70  84 SW3       29.96R
LANCASTER      PTCLDY    72  71  97 NE3       29.97R
COATESVILLE    CLOUDY    73  73 100 CALM      29.99S
POTTSTOWN      MOCLDY    73  72  96 CALM      29.98S
BLUE BELL      CLOUDY    72  72 100 CALM      29.96F
DOYLESTOWN     LGT RAIN  71  70  96 S6        29.96F
WILLOW GROVE   NOT AVBL
NORTH PHILA    RAIN      74  72  93 SW6       29.98F FOG
PHILADELPHIA   CLOUDY    75  73  93 N7        29.96F
$$




USA.gov is the U.S. government's official web portal to all federal, state and local government web resources and services.